East Lindsay
DateTemperatureDew Point
05/02 - 09:00 AM73.8°58.2°
05/02 - 08:45 AM72.5°57.9°
05/02 - 08:30 AM71.6°57.6°
05/02 - 08:15 AM70.4°57.2°
05/02 - 08:00 AM68.8°56.6°
05/02 - 07:45 AM66.8°55.8°
05/02 - 07:30 AM65.9°55.7°
05/02 - 07:15 AM64.1°54.9°
05/02 - 07:00 AM62.0°55.2°
05/02 - 06:45 AM59.0°54.7°
05/02 - 06:30 AM58.1°54.0°
05/02 - 06:15 AM57.4°53.9°
05/02 - 06:00 AM57.2°54.2°
05/02 - 05:45 AM56.1°54.1°
05/02 - 05:30 AM55.3°53.8°
05/02 - 05:15 AM55.8°54.2°
05/02 - 05:00 AM56.0°54.4°
05/02 - 04:45 AM56.2°54.1°
05/02 - 04:30 AM56.7°54.2°
05/02 - 04:15 AM57.4°54.7°
05/02 - 04:00 AM57.9°55.0°
05/02 - 03:45 AM57.7°55.5°
05/02 - 03:30 AM56.6°55.5°
05/02 - 03:15 AM56.5°55.6°
05/02 - 03:00 AM56.6°55.6°
05/02 - 02:45 AM57.0°55.9°
05/02 - 02:30 AM57.4°56.1°
05/02 - 02:15 AM57.8°56.5°
05/02 - 02:00 AM58.2°56.9°
05/02 - 01:45 AM58.6°57.5°
05/02 - 01:30 AM58.2°57.2°
05/02 - 01:15 AM58.5°57.3°
05/02 - 01:00 AM58.9°57.4°
05/02 - 12:45 AM59.5°57.5°
05/02 - 12:30 AM60.0°57.4°
05/02 - 12:15 AM60.5°57.2°
05/02 - 12:00 AM61.2°57.1°
05/01 - 11:45 PM62.2°56.9°
05/01 - 11:30 PM63.4°57.3°
05/01 - 11:15 PM63.9°57.2°
05/01 - 11:00 PM63.7°57.3°
05/01 - 10:45 PM64.8°57.1°
05/01 - 10:30 PM65.6°56.6°
05/01 - 10:15 PM64.7°57.0°
05/01 - 10:00 PM64.2°58.0°
05/01 - 09:45 PM64.0°58.7°
05/01 - 09:30 PM64.6°60.5°
05/01 - 09:15 PM65.1°60.6°
05/01 - 09:00 PM65.9°60.4°
05/01 - 08:45 PM66.4°61.1°
05/01 - 08:30 PM67.8°62.0°
05/01 - 08:15 PM69.3°62.0°
05/01 - 08:00 PM71.0°61.6°
05/01 - 07:45 PM73.2°61.4°
05/01 - 07:30 PM76.2°62.2°
05/01 - 07:15 PM79.7°60.8°
05/01 - 07:00 PM82.2°58.5°
05/01 - 06:45 PM84.1°57.5°
05/01 - 06:30 PM85.2°56.6°
05/01 - 06:15 PM86.3°56.4°
05/01 - 06:00 PM87.4°56.1°
05/01 - 05:45 PM88.2°55.8°
05/01 - 05:30 PM88.4°55.0°
05/01 - 05:15 PM88.9°54.7°
05/01 - 05:00 PM90.0°54.1°
05/01 - 04:45 PM90.5°54.8°
05/01 - 04:30 PM91.2°55.2°
05/01 - 04:15 PM91.2°55.1°
05/01 - 04:00 PM91.4°55.1°
05/01 - 03:45 PM90.6°54.2°
05/01 - 03:30 PM90.8°54.1°
05/01 - 03:15 PM90.8°53.2°
05/01 - 03:00 PM91.1°51.1°
05/01 - 02:45 PM90.8°52.4°
05/01 - 02:30 PM91.5°53.4°
05/01 - 02:15 PM91.3°53.8°
05/01 - 02:00 PM89.9°54.4°
05/01 - 01:45 PM89.4°55.7°
05/01 - 01:30 PM88.2°55.5°
05/01 - 01:15 PM88.1°57.7°
05/01 - 01:00 PM88.1°57.8°
05/01 - 12:45 PM87.3°57.4°
05/01 - 12:30 PM86.3°58.8°
05/01 - 12:15 PM86.0°59.6°
05/01 - 12:00 PM84.7°59.1°
05/01 - 11:45 AM83.7°60.3°
05/01 - 11:30 AM83.1°59.8°
05/01 - 11:15 AM82.9°59.7°
05/01 - 11:00 AM82.9°59.9°
05/01 - 10:45 AM81.7°59.7°
05/01 - 10:30 AM81.0°59.2°
05/01 - 10:15 AM80.1°59.5°
05/01 - 10:00 AM78.8°58.7°
05/01 - 09:45 AM77.2°58.1°
05/01 - 09:30 AM75.6°57.4°
05/01 - 09:15 AM75.2°57.7°
05/01 - 09:00 AM74.7°57.5°
05/01 - 08:45 AM73.9°57.4°
05/01 - 08:30 AM72.8°56.9°
05/01 - 08:15 AM72.1°56.8°
05/01 - 08:00 AM69.5°56.1°
05/01 - 07:45 AM68.3°56.4°
05/01 - 07:30 AM67.0°57.1°
05/01 - 07:15 AM63.7°59.4°
05/01 - 07:00 AM58.5°58.5°
05/01 - 06:45 AM54.6°54.6°
05/01 - 06:30 AM52.9°52.9°
05/01 - 06:15 AM52.2°52.2°
05/01 - 06:00 AM51.7°51.7°
05/01 - 05:45 AM51.6°51.6°
05/01 - 05:30 AM51.8°51.8°
05/01 - 05:15 AM52.3°52.3°
05/01 - 05:00 AM52.7°52.7°
05/01 - 04:45 AM53.0°53.0°
05/01 - 04:30 AM53.5°53.5°
05/01 - 04:15 AM53.8°53.8°
05/01 - 04:00 AM54.1°54.1°
05/01 - 03:45 AM54.4°54.4°
05/01 - 03:30 AM54.1°54.1°
05/01 - 03:15 AM54.5°54.5°
05/01 - 03:00 AM54.9°54.9°
05/01 - 02:45 AM54.8°54.6°
05/01 - 02:30 AM55.2°55.0°
05/01 - 02:15 AM55.6°55.4°
05/01 - 02:00 AM55.7°55.6°
05/01 - 01:45 AM55.8°55.6°
05/01 - 01:30 AM55.8°55.4°
05/01 - 01:15 AM56.0°55.5°
05/01 - 01:00 AM56.4°55.7°
05/01 - 12:45 AM56.8°55.8°
05/01 - 12:30 AM57.2°55.9°
05/01 - 12:15 AM57.7°56.1°
05/01 - 12:00 AM58.1°56.5°
04/30 - 11:45 PM58.5°57.0°
04/30 - 11:30 PM58.5°57.0°
04/30 - 11:15 PM59.0°57.2°
04/30 - 11:00 PM59.4°57.2°
04/30 - 10:45 PM59.5°57.3°
04/30 - 10:30 PM59.9°57.5°
04/30 - 10:15 PM60.9°57.9°
04/30 - 10:00 PM61.7°58.1°
04/30 - 09:45 PM62.1°57.8°
04/30 - 09:30 PM62.7°57.7°
04/30 - 09:15 PM62.8°57.9°
04/30 - 09:00 PM63.6°57.9°
04/30 - 08:45 PM64.5°57.0°
04/30 - 08:30 PM66.0°57.7°
04/30 - 08:15 PM67.8°57.8°
04/30 - 08:00 PM69.7°57.2°
04/30 - 07:45 PM71.7°57.4°
04/30 - 07:30 PM74.2°57.3°
04/30 - 07:15 PM76.7°57.2°
04/30 - 07:00 PM78.7°56.2°
04/30 - 06:45 PM80.4°55.8°
04/30 - 06:30 PM81.7°54.2°
04/30 - 06:15 PM82.9°53.8°
04/30 - 06:00 PM83.8°53.5°
04/30 - 05:45 PM84.4°54.2°
04/30 - 05:30 PM84.8°55.0°
04/30 - 05:15 PM85.0°54.7°
04/30 - 05:00 PM85.5°54.4°
04/30 - 04:45 PM86.4°54.4°
04/30 - 04:30 PM86.8°54.6°
04/30 - 04:15 PM87.4°54.7°
04/30 - 04:00 PM86.7°54.5°
04/30 - 03:45 PM87.0°55.2°
04/30 - 03:30 PM87.0°55.2°
04/30 - 03:15 PM86.6°54.0°
04/30 - 03:00 PM86.5°54.2°
04/30 - 02:45 PM86.5°53.8°
04/30 - 02:30 PM86.7°54.8°
04/30 - 02:15 PM86.0°54.2°
04/30 - 02:00 PM85.7°55.4°
04/30 - 01:45 PM83.9°54.9°
04/30 - 01:30 PM83.4°54.3°
04/30 - 01:15 PM83.0°55.8°
04/30 - 01:00 PM82.8°56.1°
04/30 - 12:45 PM82.0°56.5°
04/30 - 12:30 PM81.2°56.4°
04/30 - 12:15 PM80.1°56.0°
04/30 - 12:00 PM80.6°56.7°
04/30 - 11:45 AM79.2°56.5°
04/30 - 11:30 AM78.7°56.4°
04/30 - 11:15 AM78.1°56.4°
04/30 - 11:00 AM77.3°56.0°
04/30 - 10:45 AM76.0°55.7°
04/30 - 10:30 AM76.0°55.6°
04/30 - 10:15 AM74.4°55.1°
04/30 - 10:00 AM73.4°54.4°